This demonstration page uses our WeatherBlox Daily Observations layout. Learn more.

Left ArrowRight Arrow

39.12711, -84.51439

Hourly Observations for October 3, 2021

Temp ( °F °C ) Dew Point ( °F °C ) Humidity (%) Winds ( mph kmh ) Pressure ( in mb ) Visibility ( mi km ) Precip ( " mm )
12:53 am 00:53 Cloudy 69 20.6 67 19.4 93 93 SSW 7 11 30.01 1016 10 16 0.00 0.00
1:53 am 01:53 Cloudy 69 20.6 67 19.4 93 93 S 7 11 29.99 1016 10 16 0.00 0.00
2:53 am 02:53 Cloudy with Light Rain 69 20.6 67 19.4 93 93 S 9 15 29.99 1016 10 16 0.00 0.00
3:50 am 03:50 Cloudy with Heavy Rain 68 20 68 20 100 100 S 7 11 29.97 1015 2 3 0.06 1.52
3:53 am 03:53 Cloudy with Rain 68 20 68 20 100 100 S 7 11 29.97 1015 3 4 0.06 1.52
4:01 am 04:01 Cloudy with Heavy Rain 68 20 68 20 100 100 S 8 13 29.97 1015 2 3 0.06 1.52
4:12 am 04:12 Cloudy with Rain 68 20 68 20 100 100 S 7 11 29.97 1015 3 4 0.09 2.29
4:19 am 04:19 Cloudy with Heavy Rain 68 20 68 20 100 100 S 7 11 29.96 1015 3 4 0.12 3.05
4:32 am 04:32 Cloudy with Rain 68 20 68 20 100 100 S 7 11 29.96 1015 3 5 0.16 4.06
4:42 am 04:42 Cloudy with Heavy Rain 68 20 68 20 100 100 S 8 13 29.96 1015 2 3 0.24 6.10
4:49 am 04:49 Cloudy with Heavy Rain 68 20 68 20 100 100 S 10 17 29.96 1015 2 3 0.28 7.11
4:53 am 04:53 Cloudy with Rain 68 20 67 19.4 96 96 S 13 20 29.95 1014 3 4 0.29 7.37
4:59 am 04:59 Cloudy with Light Rain 68 20 67 19.4 96 96 S 10 17 29.95 1014 3 5 0.01 0.25
5:12 am 05:12 Cloudy with Light Rain 68 20 67 19.4 96 96 S 10 17 29.95 1014 5 8 0.02 0.51
5:53 am 05:53 Cloudy with Light Rain 68 20 67 19.4 96 96 SSW 9 15 29.95 1014 6 10 0.03 0.76
6:40 am 06:40 Cloudy 67 19.4 67 19.4 100 100 S 9 15 29.95 1014 10 16 0.07 1.78
6:53 am 06:53 Cloudy with Light Rain 67 19.4 67 19.4 100 100 S 13 20 29.95 1014 7 11 0.07 1.78
7:18 am 07:18 Cloudy with Light Rain 67 19.4 67 19.4 100 100 SSW 8 13 29.96 1015 7 11 0.01 0.25
7:53 am 07:53 Cloudy with Light Rain 68 20 67 19.4 96 96 S 6 9 29.95 1014 7 11 0.01 0.25
8:53 am 08:53 Cloudy with Light Rain 68 20 67 19.4 96 96 S 7 11 29.96 1015 7 11 0.00 0.00
9:53 am 09:53 Cloudy with Light Rain 69 20.6 68 20 96 96 S 8 13 29.95 1014 7 11 0.00 0.00
10:53 am 10:53 Cloudy 70 21.1 69 20.6 97 97 S 6 9 29.94 1014 7 11 0.00 0.00
11:41 am 11:41 Mostly Cloudy 72 22.2 69 20.6 91 91 S 10 17 29.92 1013 10 16 0.00 0.00
11:53 am 11:53 Cloudy 71 21.7 69 20.6 94 94 S 9 15 29.93 1014 8 13 0.00 0.00
12:08 pm 12:08 Cloudy 72 22.2 69 20.6 91 91 S 8 13 29.93 1014 10 16 0.00 0.00
12:19 pm 12:19 Cloudy 71 21.7 69 20.6 94 94 SSW 8 13 29.94 1014 10 16 0.00 0.00
12:53 pm 12:53 Cloudy with Light Rain 71 21.7 69 20.6 94 94 SSW 8 13 29.94 1014 5 8 0.02 0.51
1:53 pm 13:53 Cloudy with Rain 70 21.1 69 20.6 97 97 SW 9 15 29.90 1012 4 6 0.11 2.79
1:59 pm 13:59 Cloudy with Light Rain 70 21.1 69 20.6 97 97 SW 8 13 29.90 1012 4 6 0.01 0.25
2:23 pm 14:23 Cloudy with Light Rain 70 21.1 68 20 93 93 WSW 9 15 29.89 1012 10 16 0.02 0.51
2:53 pm 14:53 Mostly Cloudy with Light Rain 68 20 67 19.4 96 96 SSW 10 17 29.89 1012 10 16 0.03 0.76
3:53 pm 15:53 Mostly Cloudy 69 20.6 67 19.4 93 93 SSW 6 9 29.88 1012 10 16 0.00 0.00
4:53 pm 16:53 Sunny 71 21.7 67 19.4 87 87 S 10 17 29.87 1012 10 16 0.00 0.00
5:53 pm 17:53 Mostly Sunny 69 20.6 66 18.9 90 90 S 12 19 29.87 1012 10 16 0.00 0.00
8:30 pm 20:30 Cloudy 66 19 64 18 94 94 S 6 9 29.88 1012 10 16 0.00 0.00
8:35 pm 20:35 Cloudy 66 19 64 18 94 94 S 6 9 29.88 1012 10 16 0.00 0.00
8:55 pm 20:55 Cloudy 66 19 64 18 94 94 SSW 6 9 29.88 1012 10 16 0.00 0.00
9:53 pm 21:53 Mostly Cloudy 66 18.9 65 18.3 96 96 SSW 5 7 29.89 1012 10 16 0.00 0.00
10:53 pm 22:53 Mostly Cloudy 65 18.3 65 18.3 100 100 Calm 29.88 1012 10 16 0.00 0.00
11:25 pm 23:25 Cloudy 67 19.4 66 18.9 97 97 SSW 5 7 29.89 1012 10 16 0.00 0.00
11:53 pm 23:53 Cloudy 66 18.9 66 18.9 100 100 SSE 3 6 29.88 1012 10 16 0.00 0.00

Powered by AerisWeather